This demonstration page uses our WeatherBlox Daily Observations layout. Learn more.

Left ArrowRight Arrow

41.86663, -103.66717

Hourly Observations for February 20, 2019

Temp ( °F °C ) Dew Point ( °F °C ) Humidity (%) Winds ( mph kmh ) Pressure ( in mb ) Visibility ( mi km ) Precip ( " mm )
12:53 am 00:53 Clear with Mist and Fog 4 -15.6 3 -16.1 96 96 N N/A 29.84 1011 4 6 N/A
1:02 am 01:02 Partly Cloudy with Mist and Fog 2 -16.7 1 -17.2 96 96 N N/A 30.05 1018 4 6 N/A
1:10 am 01:10 Mostly Cloudy with Mist and Fog 1 -17.2 N/A 95 95 N N/A 30.05 1018 3 5 N/A
1:53 am 01:53 Cloudy 2 -16.7 N/A 91 91 N 5 7 29.83 1010 7 11 N/A
2:04 am 02:04 Cloudy with Mist and Fog 4 -15.6 2 -16.7 91 91 N 3 6 30.01 1016 3 4 N/A
2:12 am 02:12 Mostly Cloudy with Mist and Fog 4 -15.6 3 -16.1 96 96 N 5 7 30.01 1016 1 1 N/A
2:29 am 02:29 Mostly Cloudy with Freezing Fog 4 -15.6 3 -16.1 96 96 N 5 7 30.00 1016 1 1 N/A
2:43 am 02:43 Mostly Cloudy with Freezing Fog 5 -15 3 -16 92 92 N 5 7 29.98 1015 0 0 N/A
2:53 am 02:53 Mostly Cloudy with Freezing Fog 4 -15.6 3 -16.1 96 96 NNW 3 6 29.79 1009 0 0 N/A
3:17 am 03:17 Mostly Cloudy with Freezing Fog 4 -15.6 3 -16.1 96 96 NW 5 7 29.98 1015 1 1 N/A
3:53 am 03:53 Mostly Cloudy with Freezing Fog 3 -16.1 1 -17.2 91 91 NNW 3 6 29.78 1009 1 1 N/A
4:22 am 04:22 Mostly Cloudy with Freezing Fog 1 -17 N/A 92 92 NNW 6 9 29.98 1015 1 1 N/A
4:48 am 04:48 Mostly Cloudy with Mist and Fog 1 -17 N/A 92 92 N 5 7 29.99 1016 1 2 N/A
4:53 am 04:53 Mostly Cloudy with Mist and Fog 1 -17.2 -1 -18.3 91 91 N 5 7 29.77 1008 1 2 N/A
5:11 am 05:11 Mostly Cloudy with Mist and Fog -2 -18.9 -4 -20 91 91 N 6 9 30.01 1016 1 2 N/A
5:20 am 05:20 Mostly Cloudy with Mist and Fog -4 -20 -6 -21 92 92 N 8 13 30.03 1017 3 5 N/A
5:28 am 05:28 Partly Cloudy -5 -20.6 -8 -22.2 87 87 NNW 8 13 30.05 1017 7 11 N/A
5:53 am 05:53 Clear -5 -20.6 -8 -22.2 87 87 N 7 11 29.79 1009 8 13 N/A
6:53 am 06:53 Sunny -3 -19.4 -5 -20.6 90 90 NNW 7 11 29.80 1009 8 13 N/A
7:53 am 07:53 Sunny 4 -15.6 2 -16.7 91 91 NW 6 9 29.79 1009 9 14 N/A
8:53 am 08:53 Sunny 12 -11.1 8 -13.3 84 84 WNW 13 20 29.78 1008 10 16 N/A
9:53 am 09:53 Sunny 19 -7.2 10 -12.2 68 68 WNW 16 26 29.78 1008 10 16 N/A
10:53 am 10:53 Sunny 26 -3.3 11 -11.7 53 53 WNW 20 31 29.75 1008 10 16 N/A
11:53 am 11:53 Sunny 30 -1.1 12 -11.1 47 47 NW 20 31 29.74 1007 10 16 N/A
12:53 pm 12:53 Sunny 33 0.6 11 -11.7 40 40 WNW 21 33 29.71 1006 10 16 N/A
1:53 pm 13:53 Sunny 34 1.1 8 -13.3 34 34 W 21 33 29.72 1006 10 16 N/A
2:53 pm 14:53 Sunny 35 1.7 6 -14.4 29 29 WNW 14 22 29.72 1006 10 16 N/A
3:53 pm 15:53 Partly Cloudy 33 0.6 6 -14.4 32 32 WNW 16 26 29.76 1008 10 16 N/A
4:53 pm 16:53 Mostly Sunny 32 undefined 7 -13.9 35 35 W 15 24 29.79 1009 10 16 N/A
5:53 pm 17:53 Clear 28 -2.2 8 -13.3 43 43 WNW 8 13 29.85 1011 10 16 N/A
6:53 pm 18:53 Clear 22 -5.6 9 -12.8 57 57 NW 3 6 29.89 1012 10 16 N/A
7:53 pm 19:53 Clear 19 -7.2 9 -12.8 65 65 NW 7 11 29.89 1012 10 16 N/A
8:53 pm 20:53 Clear 19 -7.2 10 -12.2 68 68 WNW 8 13 29.89 1012 10 16 N/A
9:53 pm 21:53 Clear 16 -8.9 8 -13.3 71 71 SE 5 7 29.91 1013 10 16 N/A
10:53 pm 22:53 Clear 18 -7.8 9 -12.8 68 68 N N/A 29.90 1013 10 16 N/A
11:53 pm 23:53 Clear 12 -11.1 7 -13.9 80 80 N 5 7 29.93 1013 10 16 N/A

Powered by AerisWeather